Location: Endfield
(51.6667°N, 0.0667°W)
Time: 06:52:39
(UTC+00:00)

Nadezhda 4 Rocket - Pass Details

Date: 19 May 2024
Orbit: 950 x 990 km, 82.9° (Epoch: 19 June)

Event Time Altitude Azimuth Distance (km) Brightness Sun altitude
Exits shadow 22:30:38 20° 184° (S) 2,047 5.2 -15.9°
Maximum altitude 22:35:03 84° 98° (E) 980 3.9 -16.1°
Drops below altitude 10° 22:41:20 10° 11° (N) 2,734 7.3 -16.4°
Sets 22:43:52 0° 11° (N) 3,692 8.1 -16.5°
